#timestamp,LO_Frequency,Hit,StdDev 
1515974415.3,286047001.9,N
1515974435.1,286046999.9,N
1515974455.8,286046998.1,N
1515974475.7,286047000.8,N
1515974495.5,286047000.9,N
1515974515.4,286046997.0,N
1515974535.2,286046998.6,N
1515974555.0,286047000.5,N
1515974555.9,286047000.5,N
1515974575.8,286047000.3,N
1515974595.6,286047001.2,N
1515974615.5,286046998.5,N
1515974635.3,286046997.9,N
1515974655.1,286046997.2,N
1515974675.9,286046999.3,N
1515974695.7,286046998.1,N
1515974715.5,286046998.3,N
1515974735.4,286047001.0,N
1515974755.2,286047001.1,N
1515974775.1,286047002.0,N
1515974776.0,286047002.0,N
1515974795.8,286047000.1,N
1515974815.6,286047004.0,N
1515974835.5,286047001.7,N
1515974855.3,286047001.8,N
1515974875.1,286046999.7,N
1515974895.9,286046998.2,N
1515974915.7,286046996.8,N
1515974935.6,286046996.9,N
1515974955.4,286046998.7,N
1515974975.2,286046998.6,N
1515974995.1,286047002.4,N
1515974996.0,286047002.4,N
1515975015.8,286046999.8,N
1515975035.7,286047002.7,N
1515975055.5,286047001.9,N
1515975075.3,286046999.3,N
1515975095.2,286046998.7,N
1515975115.0,286046996.6,N
1515975115.9,286046996.6,N
1515975135.8,286046999.2,N
1515975155.6,286046996.9,N
1515975175.4,286046997.5,N
1515975195.3,286046999.1,N
1515975215.1,286046999.5,N
1515975235.8,286046997.2,N
1515975255.7,286046999.6,N
1515975275.5,286046999.5,N
1515975295.4,286046996.8,N
1515975315.2,286046998.6,N
1515975335.0,286047002.5,N
1515975335.9,286047002.5,N
1515975355.8,286047005.8,N
1515975375.6,286046999.8,N
1515975395.4,286047002.5,N
1515975415.3,286047002.4,N
1515975435.1,286047001.4,N
1515975455.9,286047004.0,N
1515975475.7,286047004.4,N
1515975495.5,286047001.5,N
1515975515.4,286047002.4,N
1515975535.2,286047001.2,N
1515975555.1,286046998.1,N
1515975556.0,286046998.1,N
1515975575.8,286047000.9,N
1515975595.6,286047000.8,N
1515975615.5,286046998.3,N
1515975635.3,286046998.9,N
1515975655.1,286047000.7,N
1515975675.9,286046998.9,N
1515975695.7,286046998.6,N
1515975715.6,286046997.1,N
1515975735.4,286046996.6,N
1515975755.2,286046996.7,N
1515975775.1,286046998.0,N
1515975776.0,286046998.0,N
1515975795.8,286046995.5,N
1515975815.7,286046999.6,N
1515975835.5,286046999.2,N
1515975855.3,286046999.5,N
1515975875.2,286046999.6,N
1515975895.0,286046998.1,N
1515975895.9,286046998.1,N
1515975915.7,286047000.8,N
1515975935.6,286046999.8,N
1515975955.4,286046998.9,N
1515975975.3,286046999.6,N
1515975995.1,286046996.7,N
1515976015.8,286046997.0,N
1515976035.7,286046997.6,N
1515976055.5,286046997.4,N
1515976075.4,286046998.0,N
1515976095.2,286046995.2,Y
1515976115.0,286046997.8,P
1515976115.9,286046997.8,P
1515976135.8,286046998.6,P
1515976155.6,286046998.9,N
1515976175.4,286046998.7,N
1515976195.3,286047000.0,N
1515976215.1,286047002.8,Y
1515976235.9,286047002.3,P
1515976255.7,286046999.8,N
1515976275.5,286047001.2,N
1515976295.4,286046998.1,N
1515976315.2,286046998.6,N
1515976335.1,286047000.7,N
1515976336.0,286047000.7,N
1515976355.8,286047000.0,N
1515976375.6,286046999.8,N
1515976395.5,286047002.2,N
1515976415.3,286047002.4,N
1515976435.1,286046999.7,N
1515976455.9,286046998.7,N
1515976475.7,286046999.0,N
1515976495.6,286046999.7,N
1515976515.4,286047002.1,N
1515976535.2,286047003.6,N
1515976555.1,286047002.1,N
1515976556.0,286047002.1,N
1515976575.8,286047003.6,N
1515976595.7,286047004.2,N
1515976615.5,286047002.5,N
1515976635.3,286047002.1,N
1515976655.2,286047004.0,N
1515976675.9,286047003.7,N
1515976695.7,286047002.4,N
1515976715.6,286047002.4,N
1515976735.4,286047002.2,N
1515976755.3,286047000.6,N
1515976775.1,286047000.7,N
1515976776.0,286047000.7,N
1515976795.8,286047000.0,N
1515976815.7,286047002.0,N
1515976835.5,286047000.5,N
1515976855.3,286047002.4,N
1515976875.2,286047002.5,N
1515976895.0,286047002.1,N
1515976895.9,286047002.1,N
1515976915.8,286047002.8,N
1515976935.6,286047001.5,N
1515976955.4,286047004.0,N
1515976975.3,286047000.2,N
1515976995.1,286047000.5,N
1515977015.9,286047000.5,N
1515977035.7,286046999.8,N
1515977055.5,286047000.6,N
1515977075.4,286047002.1,N
1515977095.2,286047000.9,N
1515977115.0,286047000.9,N
1515977115.9,286047000.9,N
1515977135.8,286046998.2,N
1515977155.6,286046999.9,N
1515977175.5,286047002.3,N
1515977195.3,286047000.4,N
1515977215.1,286046999.7,N
1515977235.9,286047002.4,N
1515977255.7,286047002.2,N
1515977275.6,286047004.1,Y
1515977295.4,286047004.4,P
1515977315.2,286047001.6,N
1515977335.1,286047000.3,N
1515977336.0,286047000.3,N
1515977385.8,286047002.7,E
1515977395.7,286047001.2,N
1515977415.6,286047001.1,P
1515977435.4,286046999.1,P
1515977455.3,286046999.0,N
1515977475.1,286046996.5,Y
1515977495.8,286046997.5,P
1515977515.7,286046999.2,N
1515977535.5,286046997.0,N
1515977555.4,286046998.9,N
1515977575.2,286046996.5,Y
1515977595.0,286046998.2,P
1515977595.9,286046998.2,P
1515977615.8,286047000.8,P
1515977635.6,286046996.7,Y
1515977655.5,286046998.1,P
1515977675.3,286047002.1,P
1515977695.1,286047001.9,N
1515977715.9,286047002.1,N
1515977735.7,286047002.5,N
1515977755.5,286046999.9,N
1515977775.4,286047001.0,N
1515977795.2,286047000.3,N
1515977815.1,286046998.6,N
1515977816.0,286046998.6,N
1515977835.8,286046998.2,N
1515977855.6,286046998.1,N
1515977875.5,286046998.3,N
1515977895.3,286046996.6,N
1515977915.2,286046999.5,N
1515977935.9,286046996.7,N
1515977955.7,286046993.9,Y
1515977975.6,286046998.9,P
1515977995.4,286046999.0,P
